Weather History for Crestview, FL

Change the Weather History Date:

Sunday, December 8, 2013

  Actual Average Record
Temperature  
Mean Temperature 60 °F -  
Max Temperature 71 °F - - ()
Min Temperature 48 °F - - ()
Degree Days  
Heating Degree Days 6    
Growing Degree Days 10 (Base 50)    
Moisture  
Dew Point 61 °F    
Average Humidity 97    
Maximum Humidity 100    
Minimum Humidity 87    
Precipitation  
Precipitation 0.00 in - - ()
Sea Level Pressure  
Sea Level Pressure 30.14 in    
Wind  
Wind Speed 4 mph (ESE)    
Max Wind Speed 12 mph    
Max Gust Speed -    
Visibility 4 miles    
Events Fog    
T = Trace of Precipitation, MM = Missing Value Source: NWS Daily Summary

Daily Weather History Graph

Daily Weather History Graph

Search for Another Location

Airport:

Trip Planner

Search our weather history database for the weather conditions in past years. The results will help you decide how hot, cold, wet, or windy it might be!

Date:

Astronomy

Dec. 08, 2013 Rise Set
Actual Time 6:31 AM CST 4:44 PM CST
Civil Twilight 6:04 AM CST 5:11 PM CST
Nautical Twilight 5:34 AM CST 5:41 PM CST
Astronomical Twilight 5:05 AM CST 6:10 PM CST
Moon 11:10 AM CST (12/8) 11:12 PM CST (12/8)
Length of Visible Light 11h 06m
Length of Day
10h 13m
Waxing Crescent, 40% of the Moon is Illuminated
Dec 8
Waxing Crescent
Dec 9
First Quarter
Dec 17
Full
Dec 25
Last Quarter
Jan 1
New

Hourly Weather History & Observations

Time (CST) Temp. Dew Point Humidity Pressure Visibility Wind Dir Wind Speed Gust Speed Precip Events Conditions
12:08 AM 48.2 °F 44.6 °F 87% 30.21 in 2.5 mi NNE 3.5 mph - N/A   Overcast
12:18 AM 48.2 °F 44.6 °F 87% 30.21 in 2.0 mi NNE 4.6 mph - N/A   Overcast
12:23 AM 48.2 °F 44.6 °F 87% 30.21 in 1.8 mi NNE 2.3 mph - N/A   Overcast
12:43 AM 48.2 °F 46.4 °F 93% 30.20 in 2.0 mi NNE 3.5 mph - N/A   Overcast
12:48 AM 48.2 °F 46.4 °F 93% 30.21 in 2.5 mi NNE 2.3 mph - N/A   Overcast
12:53 AM 50.0 °F 46.4 °F 87% 30.20 in 3.0 mi NNE 3.5 mph - N/A   Overcast
12:58 AM 49.1 °F 46.0 °F 89% 30.21 in 4.0 mi NNE 4.6 mph - N/A   Overcast
1:58 AM 49.6 °F 46.6 °F 89% 30.20 in 7.0 mi North 2.3 mph - N/A   Overcast
2:58 AM 50.2 °F 47.5 °F 90% 30.19 in 4.0 mi North 3.5 mph - N/A   Overcast
3:08 AM 50.0 °F 48.2 °F 94% 30.18 in 2.0 mi NNE 4.6 mph - N/A   Overcast
3:13 AM 50.0 °F 48.2 °F 94% 30.18 in 1.8 mi NNE 2.3 mph - N/A   Overcast
3:38 AM 50.0 °F 48.2 °F 94% 30.17 in 1.2 mi NE 2.3 mph - N/A   Overcast
3:43 AM 50.0 °F 48.2 °F 94% 30.17 in 1.0 mi NE 4.6 mph - N/A   Mist
3:58 AM 50.7 °F 48.2 °F 91% 30.18 in 1.0 mi ENE 2.3 mph - N/A   Mist
4:03 AM 51.8 °F 48.2 °F 88% 30.17 in 0.8 mi ENE 2.3 mph - N/A   Mist
4:18 AM 51.8 °F 48.2 °F 88% 30.18 in 0.5 mi North 2.3 mph - N/A Fog Fog
4:33 AM 51.8 °F 50.0 °F 94% 30.18 in 0.5 mi NNW 3.5 mph - N/A Fog Fog
4:58 AM 51.3 °F 49.5 °F 94% 30.19 in 0.5 mi North 3.5 mph - N/A Fog Fog
5:58 AM 51.3 °F 49.1 °F 92% 30.19 in 0.5 mi Calm Calm - N/A Fog Fog
6:13 AM 51.8 °F 50.0 °F 94% 30.18 in 0.2 mi Calm Calm - N/A Fog Fog
6:23 AM 51.8 °F 50.0 °F 94% 30.18 in 0.5 mi North 2.3 mph - N/A Fog Fog
6:28 AM 51.8 °F 50.0 °F 94% 30.18 in 0.2 mi NNW 2.3 mph - N/A Fog Fog
6:58 AM 52.2 °F 50.5 °F 94% 30.18 in 0.2 mi Calm Calm - N/A Fog Fog
7:03 AM 51.8 °F 50.0 °F 94% 30.18 in 0.2 mi Calm Calm - N/A Fog Fog
7:23 AM 53.6 °F 51.8 °F 94% 30.18 in 0.5 mi Calm Calm - N/A Fog Fog
7:58 AM 53.8 °F 53.1 °F 97% 30.20 in 0.5 mi Calm Calm - N/A Fog Fog
8:18 AM 55.4 °F 53.6 °F 94% 30.19 in 0.8 mi Calm Calm - N/A   Mist
8:28 AM 55.4 °F 53.6 °F 94% 30.19 in 0.8 mi NE 1.2 mph - N/A   Mist
8:33 AM 55.4 °F 53.6 °F 94% 30.19 in 1.0 mi Calm Calm - N/A   Mist
8:43 AM 55.4 °F 55.4 °F 100% 30.19 in 1.2 mi NNE 2.3 mph - N/A   Overcast
8:53 AM 55.4 °F 55.4 °F 100% 30.19 in 1.5 mi North 2.3 mph - N/A   Overcast
8:58 AM 55.6 °F 55.2 °F 99% 30.20 in 1.5 mi NNE 1.2 mph - N/A   Overcast
9:03 AM 55.4 °F 55.4 °F 100% 30.19 in 1.2 mi NE 2.3 mph - N/A   Overcast
9:13 AM 55.4 °F 55.4 °F 100% 30.18 in 1.0 mi ENE 2.3 mph - N/A   Mist
9:28 AM 57.2 °F 57.2 °F 100% 30.18 in 1.2 mi Calm Calm - N/A   Overcast
9:33 AM 57.2 °F 57.2 °F 100% 30.18 in 1.5 mi Calm Calm - N/A   Overcast
9:38 AM 57.2 °F 57.2 °F 100% 30.18 in 1.2 mi Calm Calm - N/A   Overcast
9:48 AM 57.2 °F 57.2 °F 100% 30.18 in 1.0 mi NE 1.2 mph - N/A   Mist
9:53 AM 57.2 °F 57.2 °F 100% 30.17 in 0.8 mi NE 1.2 mph - N/A   Mist
9:58 AM 57.2 °F 57.2 °F 100% 30.18 in 0.8 mi NNE 1.2 mph - N/A   Mist
10:03 AM 57.2 °F 57.2 °F 100% 30.17 in 0.5 mi NNE 1.2 mph - N/A Fog Fog
10:58 AM 59.9 °F 59.7 °F 99% 30.16 in 0.5 mi Calm Calm - N/A Fog Fog
11:03 AM 60.8 °F 60.8 °F 100% 30.15 in 0.8 mi Calm Calm - N/A   Mist
11:18 AM 62.6 °F 60.8 °F 94% 30.14 in 1.0 mi SE 2.3 mph - N/A   Mist
11:23 AM 62.6 °F 62.6 °F 100% 30.13 in 1.5 mi SE 4.6 mph - N/A   Overcast
11:28 AM 64.4 °F 62.6 °F 94% 30.13 in 1.5 mi SSE 5.8 mph - N/A   Overcast
11:33 AM 64.4 °F 64.4 °F 100% 30.12 in 2.0 mi SSE 6.9 mph - N/A   Overcast
11:38 AM 64.4 °F 64.4 °F 100% 30.12 in 2.5 mi SE 8.1 mph - N/A   Overcast
11:43 AM 66.2 °F 66.2 °F 100% 30.12 in 3.0 mi SE 8.1 mph - N/A   Overcast
11:58 AM 66.4 °F 66.4 °F 100% 30.12 in 10.0 mi SE 8.1 mph - N/A   Overcast
12:08 PM 68.0 °F 68.0 °F 100% 30.11 in 10.0 mi Variable 5.8 mph - N/A   Overcast
12:18 PM 68.0 °F 68.0 °F 100% 30.11 in 10.0 mi SSE 8.1 mph - N/A   Overcast
12:33 PM 69.8 °F 69.8 °F 100% 30.10 in 10.0 mi SSE 11.5 mph - N/A   Overcast
12:43 PM 69.8 °F 69.8 °F 100% 30.10 in 10.0 mi SSE 9.2 mph - N/A   Overcast
12:48 PM 69.8 °F 69.8 °F 100% 30.10 in 10.0 mi SSE 9.2 mph - N/A   Overcast
12:58 PM 70.0 °F 69.1 °F 97% 30.10 in 10.0 mi South 8.1 mph - N/A   Overcast
1:01 PM 69.8 °F 68.0 °F 94% 30.10 in 10.0 mi South 10.4 mph - N/A   Overcast
1:31 PM 69.8 °F 68.0 °F 94% 30.09 in 10.0 mi SSE 9.2 mph - N/A   Overcast
1:58 PM 70.0 °F 68.2 °F 94% 30.10 in 10.0 mi SSE 10.4 mph - N/A   Overcast
2:58 PM 70.9 °F 68.7 °F 93% 30.10 in 10.0 mi South 10.4 mph - N/A   Overcast
3:18 PM 71.6 °F 69.8 °F 94% 30.09 in 10.0 mi SSE 5.8 mph - N/A   Overcast
3:19 PM 71.6 °F 69.8 °F 94% 30.09 in 10.0 mi SSE 6.9 mph - N/A   Overcast
3:58 PM 70.3 °F 70.0 °F 99% 30.10 in 10.0 mi SSE 5.8 mph - N/A   Overcast
4:53 PM 69.8 °F 69.8 °F 100% 30.10 in 2.0 mi SSE 5.8 mph - N/A   Overcast
4:58 PM 69.4 °F 69.1 °F 99% 30.11 in 1.2 mi SSE 4.6 mph - N/A   Overcast
5:03 PM 69.8 °F 69.8 °F 100% 30.10 in 1.2 mi SSE 3.5 mph - N/A   Overcast
5:08 PM 69.8 °F 69.8 °F 100% 30.10 in 1.5 mi SSE 4.6 mph - N/A   Overcast
5:28 PM 69.8 °F 69.8 °F 100% 30.10 in 1.8 mi SSE 4.6 mph - N/A   Overcast
5:48 PM 69.8 °F 69.8 °F 100% 30.10 in 1.2 mi SSE 5.8 mph - N/A   Overcast
5:53 PM 69.8 °F 69.8 °F 100% 30.10 in 1.0 mi SE 5.8 mph - N/A   Mist
5:58 PM 69.1 °F 69.1 °F 100% 30.11 in 1.0 mi SE 5.8 mph - N/A   Mist
6:03 PM 69.8 °F 69.8 °F 100% 30.10 in 1.2 mi SSE 5.8 mph - N/A   Overcast
6:13 PM 69.8 °F 69.8 °F 100% 30.10 in 1.0 mi SSE 5.8 mph - N/A   Mist
6:18 PM 69.8 °F 69.8 °F 100% 30.11 in 0.8 mi SSE 4.6 mph - N/A   Mist
6:33 PM 69.8 °F 69.8 °F 100% 30.11 in 1.0 mi SSE 4.6 mph - N/A   Mist
6:58 PM 69.1 °F 69.1 °F 100% 30.12 in 1.0 mi SSE 5.8 mph - N/A   Mist
7:18 PM 69.8 °F 69.8 °F 100% 30.11 in 0.8 mi SSE 6.9 mph - N/A   Mist
7:43 PM 69.8 °F 69.8 °F 100% 30.11 in 1.2 mi SSE 6.9 mph - N/A   Overcast
7:48 PM 69.8 °F 69.8 °F 100% 30.11 in 1.5 mi SSE 8.1 mph - N/A   Overcast
7:58 PM 69.4 °F 69.4 °F 100% 30.11 in 2.0 mi SSE 6.9 mph - N/A   Overcast
8:03 PM 69.8 °F 69.8 °F 100% 30.10 in 3.0 mi SSE 8.1 mph - N/A   Overcast
8:08 PM 69.8 °F 69.8 °F 100% 30.10 in 4.0 mi SSE 6.9 mph - N/A   Overcast
8:43 PM 69.8 °F 69.8 °F 100% 30.11 in 10.0 mi SSE 8.1 mph - N/A   Overcast
8:58 PM 69.6 °F 69.6 °F 100% 30.12 in 10.0 mi SSE 8.1 mph - N/A   Mostly Cloudy
9:03 PM 69.8 °F 69.8 °F 100% 30.11 in 10.0 mi SSE 10.4 mph - N/A   Overcast
9:18 PM 69.8 °F 69.8 °F 100% 30.11 in 9.0 mi SSE 10.4 mph - N/A   Overcast
9:58 PM 69.8 °F 69.8 °F 100% 30.12 in 10.0 mi SSE 9.2 mph - N/A   Overcast
10:53 PM 69.8 °F 69.8 °F 100% 30.11 in 10.0 mi SSE 9.2 mph - N/A   Overcast
10:58 PM 69.4 °F 69.4 °F 100% 30.12 in 10.0 mi SSE 8.1 mph - N/A   Overcast
11:28 PM 69.8 °F 69.8 °F 100% 30.11 in 8.0 mi SSE 9.2 mph - N/A   Overcast
11:43 PM 69.8 °F 69.8 °F 100% 30.11 in 10.0 mi SSE 10.4 mph - N/A   Overcast
11:58 PM 69.6 °F 69.6 °F 100% 30.11 in 10.0 mi SSE 11.5 mph - N/A   Overcast